Location: Helion Bumpstead
(52.0500°N, 0.4000°E)
Time: 11:44:44
(UTC+00:00)

Thor Agena Rocket - Pass Details

Date: 15 November 2025
Orbit: 755 x 802 km, 99.1° (Epoch: 09 December)

Event Time Altitude Azimuth Distance (km) Brightness Sun altitude
Rises 05:59:48 0° 18° (NNE) 3,309 6.8 -12.0°
Reaches altitude 10° 06:02:12 10° 22° (NNE) 2,369 6.1 -11.7°
Maximum altitude 06:07:22 58° 102° (ESE) 912 4.3 -10.9°
Drops below altitude 10° 06:12:24 10° 182° (S) 2,321 6.2 -10.2°
Sets 06:14:44 0° 186° (S) 3,237 6.9 -9.8°
